Tracking 29088 objects as of 14-Jul-2024
HD Live streaming from Space Station
objects crossing your sky now

COSMOS 1275 DEB

Track COSMOS 1275 DEB now!
10-day predictions


NORAD ID: 12714
Int'l Code: 1981-053BJ
Perigee: 953.2 km
Apogee: 1,140.0 km
Inclination: 83.0 °
Period: 106.0 minutes
Semi major axis: 7417 km
RCS: 0.2013 m2 (medium)
Launch date: June 4, 1981
Source: Commonwealth of Independent States (former USSR) (CIS)
Launch site: PLESETSK MISSILE AND SPACE COMPLEX (PKMTR)

Note: This is SATELLITE DEBRIS
Your satellite tracking list
Your tracking list is empty




NASA's NSSDC Master Catalog

Two Line Element Set (TLE):
1 12714U 81053BJ  24195.86887249  .00001106  00000-0  14150-2 0  9996
2 12714  82.9750 122.6496 0125872 306.4253  52.5340 13.58961593121335
Source of the keplerian elements: AFSPC